Regional & State Weather Roundups


572 
ASUS41 KLWX 241311
RWRLWX
REGIONAL WEATHER ROUNDUP
NATIONAL WEATHER SERVICE BALTIMORE MD/WASHINGTON DC
900 AM EDT MON JUN 24 2019
Note: "FAIR" indicates few or no clouds below 12,000 feet
with no significant weather and/or obstructions to visibility.
 TC=TEMPERATURE CELSIUS
 * =Non NWS site. Station does not report precipitation (e.g. rain,
    snow, etc.), thunder, or fog.
DCZ001-MDZ009-015-VAZ040>042-051-053>054-241400-
WASHINGTON METRO
  
CITY           SKY/WX    TMP DP  RH WIND       PRES   REMARKS
WASHINGTON NAT FAIR      76  62  62 S6        29.91S                  
DULLES         PTSUNNY   74  62  66 VRB3      29.91S                  
ANDREWS AFB    FAIR      76  63  64 SW7       29.90F                  
FT BELVOIR     SUNNY     75  64  67 S6        29.91S                  
QUANTICO       CLOUDY    74  66  76 S8        29.92S                  
LEESBURG*      FAIR      73  66  78 CALM      29.93R                  
MANASSAS*      FAIR      73  64  73 CALM      29.92R                  
GAITHERSBURG*  FAIR      76  64  66 NW3       29.92S                  
$$
MDZ006>007-011-014-241400-
BALTIMORE METRO
  
CITY           SKY/WX    TMP DP  RH WIND       PRES   REMARKS
BWI AIRPORT    FAIR      75  63  66 CALM      29.90F                  
MD SCIENCE CTR   N/A     77  62  59 MISG      29.90F                  
MARTIN STATE   MOSUNNY   75  66  73 SW5       29.92S                  
ANNAPOLIS      FAIR      78  64  61 S7        29.90F                  
ABERDEEN*      MOSUNNY   75  66  73 S6        29.91S                  
$$
MDZ012-015-019>023-241400-
MARYLAND EASTERN SHORE
  
CITY           SKY/WX    TMP DP  RH WIND       PRES   REMARKS
OCEAN CITY     FAIR      78  66  66 W9        29.94S                  
SALISBURY      FAIR      77  68  73 SW7       29.93S                  
CAMBRIDGE*     SUNNY     75  66  73 VRB5      29.92F                  
EASTON*        SUNNY     79  66  65 S9        29.95S                  
$$
MDZ017>025-241400-
SOUTHERN MARYLAND
  
CITY           SKY/WX    TMP DP  RH WIND       PRES   REMARKS
PATUXENT RIVER FAIR      76  68  76 SW8       29.92S                  
ST INIGOES     FAIR      79  69  71 SW9       29.91F                  
LEONARDTOWN*   NOT AVBL                                               
$$
MDZ003>005-241400-
NORTH CENTRAL MARYLAND
  
CITY           SKY/WX    TMP DP  RH WIND       PRES   REMARKS
FREDERICK*     PTSUNNY   72  63  73 CALM      29.94S                  
HAGERSTOWN APT PTSUNNY   71  61  70 CALM      29.92S                  
$$
MDZ501>502-241400-
WESTERN MARYLAND
  
CITY           SKY/WX    TMP DP  RH WIND       PRES   REMARKS
OAKLAND*       PTSUNNY   68  64  88 S5        29.99S                  
CUMBERLAND*    NOT AVBL                                               
$$
VAZ025>031-241400-
SHENANDOAH VALLEY
  
CITY           SKY/WX    TMP DP  RH WIND       PRES   REMARKS
WINCHESTER*    PTSUNNY   72  63  73 SW5       29.94R                  
FRONT ROYAL*   PTSUNNY   72  64  78 S6        29.92R                  
LURAY*         FAIR      73  64  73 S6        29.94S                  
NEW MARKET*    FAIR      73  64  73 CALM      29.93S                  
STAUNTON*      FAIR      75  64  69 CALM      29.97S                  
WAYNESBORO*    FAIR      74  67  78 CALM      29.97S                  
$$
WVZ021-048>050-054>055-241400-
EASTERN WEST VIRGINIA PANHANDLE
  
CITY           SKY/WX    TMP DP  RH WIND       PRES   REMARKS
MARTINSBURG    FAIR      73  60  63 CALM      29.90F                  
PETERSBURG*    FAIR      70  62  75 CALM      29.93S                  
$$
VAZ036>039-050-241400-
CENTRAL FOOTHILLS
  
CITY           SKY/WX    TMP DP  RH WIND       PRES   REMARKS
CHARLOTTESVILL FAIR      76  63  64 CALM      29.93R                  
CULPEPER*      CLOUDY    74  62  66 CALM      29.92S                  
ORANGE*        FAIR      73  63  68 S6        29.92R                  
GORDONSVILLE*  FAIR      73  65  77 SW6       29.92R                  
WARRENTON*     CLOUDY    73  61  66 S3        29.91S                  
$$
VAZ055>057-241400-
NORTH AND CENTRAL PIEDMONT
  
CITY           SKY/WX    TMP DP  RH WIND       PRES   REMARKS
FREDERICKSBRG* FAIR      75  67  76 S5        29.91S                  
STAFFORD*      FAIR      79  65  63 S5        29.95S                  
$$
NCZ024-NYZ072-PAZ021-071-VAZ022-071-241400-
OTHER REGIONAL OBSERVATIONS
  
CITY           SKY/WX    TMP DP  RH WIND       PRES   REMARKS
NEW YORK CITY  FAIR      74  53  48 CALM      29.92F                  
PHILADELPHIA   FAIR      75  64  68 SW5       29.91F                  
PITTSBURGH     CLOUDY    70  63  78 S5        29.87R                  
ROANOKE        FAIR      75  66  73 W7        29.98S                  
RICHMOND       FAIR      77  67  71 SW9       29.93F                  
RALEIGH        FAIR      77  69  76 SW8       29.97S                  
$$
ANZ530>537-241400-
MARINE OBSERVATIONS
  
STATION/POSITION TIME  TEMP    WIND        PRES
                       AIR SEA DIR/SP/G
                 (UTC) (F)     (DEG/KT/KT) (MB)
THOMAS PT LIGHT  1300   73 74  180/  8/  9 1013.7F
BALT KEY BRIDGE  1230   72     240/  3/  4 1012.5F
COVE POINT       1230   73     210/  6/  8 1013.9S
LEWISETTA        1224   74 77  240/  9/ 11 1013.4
SOLOMONS ISLAND  1230   75 77  230/  7/ 12 1012.8F
PINEY POINT      1235          270/  7/  9   N/A
$$